Satellite-Ground Cal/Val Region Overpasses Predictions

Prediction of Satellite NPP Overpassing Cal/Val Region: PacNW

Region Location: (Latitude: 10.00, Longitude: 139.50) to (Latitude: 22.70, Longitude: 165.60).

Table of predicted overpasses for the next 14.0 days since TLE Epoch: 1/1/2023
Interval Starting Time Starting Location Ending Time Ending Location
1 01/01/2023 15:12:26 ( 22.69, 157.14) 01/01/2023 15:16:02 ( 10.01, 154.12)
2 01/02/2023 02:21:32 ( 10.01, 164.65) 01/02/2023 02:25:08 ( 22.69, 161.63)
3 01/02/2023 14:53:26 ( 22.67, 161.90) 01/02/2023 14:57:01 ( 10.05, 158.89)
4 01/03/2023 03:44:02 ( 10.03, 144.03) 01/03/2023 03:47:37 ( 22.65, 141.02)
5 01/03/2023 14:35:38 ( 18.37, 165.59) 01/03/2023 14:38:00 ( 10.03, 163.64)
6 01/03/2023 16:15:55 ( 22.65, 141.27) 01/03/2023 16:17:59 ( 15.38, 139.50)
7 01/04/2023 03:25:01 ( 10.05, 148.78) 01/04/2023 03:28:36 ( 22.68, 145.77)
8 01/04/2023 15:56:54 ( 22.69, 146.04) 01/04/2023 16:00:30 ( 10.01, 143.01)
9 01/05/2023 03:06:00 ( 10.02, 153.54) 01/05/2023 03:09:36 ( 22.70, 150.52)
10 01/05/2023 15:37:53 ( 22.67, 150.79) 01/05/2023 15:41:28 ( 10.05, 147.78)
11 01/06/2023 02:46:59 ( 10.04, 158.29) 01/06/2023 02:50:34 ( 22.66, 155.28)
12 01/06/2023 15:18:53 ( 22.64, 155.54) 01/06/2023 15:22:28 ( 10.02, 152.53)
13 01/07/2023 02:27:58 ( 10.01, 163.06) 01/07/2023 02:31:34 ( 22.69, 160.04)
14 01/07/2023 14:59:51 ( 22.68, 160.30) 01/07/2023 15:03:26 ( 10.06, 157.29)
15 01/08/2023 02:11:37 ( 19.43, 165.60) 01/08/2023 02:12:32 ( 22.65, 164.80)
16 01/08/2023 03:50:27 ( 10.03, 142.43) 01/08/2023 03:53:56 ( 22.30, 139.51)
17 01/08/2023 14:40:51 ( 22.65, 165.05) 01/08/2023 14:44:26 ( 10.03, 162.04)
18 01/08/2023 16:22:21 ( 22.65, 139.68) 01/08/2023 16:22:33 ( 21.95, 139.50)
19 01/09/2023 03:31:27 ( 10.06, 147.18) 01/09/2023 03:35:02 ( 22.68, 144.17)
20 01/09/2023 16:03:19 ( 22.68, 144.44) 01/09/2023 16:06:55 ( 10.01, 141.42)
21 01/10/2023 03:12:25 ( 10.03, 151.95) 01/10/2023 03:16:00 ( 22.65, 148.94)
22 01/10/2023 15:44:19 ( 22.66, 149.19) 01/10/2023 15:47:54 ( 10.04, 146.18)
23 01/11/2023 02:53:25 ( 10.05, 156.70) 01/11/2023 02:57:00 ( 22.68, 153.69)
24 01/11/2023 15:25:18 ( 22.69, 153.96) 01/11/2023 15:28:54 ( 10.01, 150.93)
25 01/12/2023 02:34:23 ( 10.02, 161.46) 01/12/2023 02:37:58 ( 22.65, 158.45)
26 01/12/2023 15:06:17 ( 22.66, 158.71) 01/12/2023 15:09:52 ( 10.04, 155.70)
27 01/13/2023 02:16:09 ( 12.76, 165.59) 01/13/2023 02:18:58 ( 22.68, 163.20)
28 01/13/2023 03:56:53 ( 10.06, 140.84) 01/13/2023 03:58:30 ( 15.76, 139.51)
29 01/13/2023 14:47:16 ( 22.69, 163.47) 01/13/2023 14:50:52 ( 10.01, 160.45)
30 01/14/2023 03:37:51 ( 10.03, 145.60) 01/14/2023 03:41:26 ( 22.65, 142.59)
31 01/14/2023 14:31:22 ( 11.68, 165.59) 01/14/2023 14:31:50 ( 10.04, 165.21)
32 01/14/2023 16:09:45 ( 22.66, 142.84) 01/14/2023 16:13:20 ( 10.04, 139.84)
